Location: ?????
(31.8092°N, 35.2590°E)
Time: 02:39:53
(UTC+00:00)

Lacrosse 5 - Pass Details

Date: 28 October 2021
Orbit: 714 x 724 km, 57.0° (Epoch: 28 August)

Event Time Altitude Azimuth Distance (km) Brightness Sun altitude
Exits shadow 02:55:05 15° 254° (WSW) 1,857 3.4 -12.7°
Maximum altitude 02:55:52 16° 243° (WSW) 1,828 3.5 -12.5°
Drops below altitude 10° 02:58:50 10° 207° (SSW) 2,186 4.2 -11.9°
Sets 03:02:04 0° 185° (S) 3,100 5.2 -11.2°
